Погода в Витебске

Поиск расширенной информации на нашем сайте:

Полезная информация:

Новости сайта



02.01.2020
Опубликован Долгосрочный прогноз погоды по городам России и ближнего зарубежья на январь 2020 года.
Карты: Прогноз на январь и февраль 2020 года, Сравнение прогнозируемой аномалии приземной температуры воздуха на январь 2020 года по разным моделям.




Погода в Витебске - сегодня

Время (UTC), дата Ветер
(°,м/с) 
Видим.   Явления Облачность Т
(°С)
Тd
(°С)
f(%) Тe
(°С)
Pmin
(гПа)
dP
(гПа)
Po
(мм)
O2
(г/м3)
Тmin Tmax R s Состояние
почвы
00 16.01.22 320 (СЗ) 3{11}  30000 м    9/9 600 м 
[Sc]
-0.7 -4.2 77 -3  1013.8  744  301           
03 16.01.22 290 (З) 2{10}  30000 м    9/9 630 м 
[Sc]
-1.8 -5.2 78 -3  1014.7  0.7  744  302           
06 16.01.22 270 (З) 29000 м    ясно 
-3.7 -6.6 80 -5  1015.3  0.5  745  305  -3.8      12  равномерный
мокрый или
старый снег
100% 
09 16.01.22 250 (З) 30000 м    9/9 500 м 
[Sc]
-1.5 -4.9 78 -3  1015.2  0.1  745  302           
12 16.01.22 240 (ЮЗ) 35000 м    1/1 300 м 
[Sc]
-0.4 -3.8 78 -1  1013.2  -1.9  743  300           
15 16.01.22 230 (ЮЗ) 30000 м    9/9 500 м 
[Sc]
-0.6 -3 84 -2  1010.9  -2.3  742  300           
18 16.01.22 230 (ЮЗ) 4{10}  27000 м    9/9 500 м 
[Sc]
-1 -3.5 83 -4  1007.2  -3.6  739  299    -0.4    12   
21 16.01.22 230 (ЮЗ) 4{10}  27000 м    9/9 630 м 
[Sc]
-1.4 -3.6 85 -4  1003.8  -3.4  736  299           
00 17.01.22 230 (ЮЗ) 6-12{13}  8000 м  слаб. снег  10/10 270 м 
[Frnb|Ns]
-2.1 -3.6 89 -6  998.7  -5  733  298           
03 17.01.22 220 (ЮЗ) 5-10{12}  7000 м  слаб. переохл. морось (гололёд){снег} [диам. гололёда 1 мм]  10/10 210 м 
[St]
-2.2 -3.1 94 -6  993.3  -5.3  729  296      13   
06 17.01.22 220 (ЮЗ) 6-11{13}  1900 м  ливневой снег{морось}  10/10 270 м 
[Frnb]
-1 -2 93 -5  988  -5.1  725  293  -2.4    14  равномерный
сухой снег
100% 
09 17.01.22 230 (ЮЗ) 5-10{15}  4100 м  слаб. снег{ливн. осадки}  10/10 240 м 
[Frnb|Ns]
+0.4 -0.7 92 -3  983.6  -4.2  722  290           
12 17.01.22 220 (ЮЗ) 4-10{12}  2800 м  снег{ливн. осадки}  10/10 210 м 
[Frnb|Ns]
+0.6 +0.1 96 -2  980.8  -2.7  720  289           
15 17.01.22 290 (З) 3{11}  8000 м  слаб. снег  10/10 360 м 
[Frnb|Ns]
-0.5 -1.4 94 -2  984.5  3.5  722  292           
18 17.01.22 320 (СЗ) 3{11}  5000 м  слаб. снег [диам. отлож. мокр. снега 3 мм]  9/9 570 м 
[Sc]
-0.6 -1.5 94 -2  989.1  4.5  726  293    +1  15   
21 17.01.22 340 (С) 6-16{20}  8000 м  слаб. снег  10/10 330 м 
[Frnb|Ns]
-3.7 -6.6 80 -8  996.3  6.8  731  299           
00 18.01.22 330 (СЗ) 5-12{16}  35000 м  позёмок{снег}  8/8 840 м 
[Sc]
-5.3 -8.2 80 -9  1001.9  5.3  735  303           
03 18.01.22 340 (С) 6-12{15}  8000 м  слаб. снег  10/10 400 м 
[Frnb]
-5.1 -9.6 71 -10  1005.6  3.7  738  304      0.9  13   
06 18.01.22 350 (С) 3{12}  4500 м  слаб. снег  9/9 570 м 
[Sc]
-5.5 -7.6 85 -8  1009.6  3.8  740  305  -5.7    0.9  13  равномерный
сухой снег
100% 
09 18.01.22 340 (С) 4{10}  35000 м  в посл. час ливневой снег  8/8 840 м 
[Sc]
-4.9 -9.8 68 -8  1013.7  4.1  743  306           
12 18.01.22 350 (С) 4{16}  30000 м  {ливн. осадки, снег}  6/5 1000 м верхняя 
[Sc|Ci fib]
-4.3 -9.8 65 -7  1016.8  3.1  746  306           
15 18.01.22 320 (СЗ) 2{11}  28000 м    8/0 средняя, верхняя 
[Ac trans|Ci fib]
-6.1 -9.6 76 -8  1020.5  3.5  748  309           
18 18.01.22 290 (З) 28000 м    ясно 
-7.4 -9.5 85 -9  1022.7  750  312    -4  0.0  13   
21 18.01.22 270 (З) 30000 м    3/0 верхняя 
[Ci fib]
-8.2 -9.6 90 -8  1023.7  0.9  751  313           
00 19.01.22 240 (ЮЗ) 27000 м    8/0 верхняя 
[Cs]
-7.5 -9.2 88 -9  1022.6  -1  750  312           
Время (UTC), дата Ветер
(°,м/с) 
Видим.   Явления Облачность Т
(°С)
Тd
(°С)
f(%) Тe
(°С)
Pmin
(гПа)
dP
(гПа)
Po
(мм)
O2
(г/м3)
Тmin Tmax R s Состояние
почвы

Для получения пояснительной информации подведите курсор к названию столбца.

ПОГОДА в Витебске - архив

Всё, что Вы хотите узнать о погоде в Витебске - удобно и подробно!

Выберите нужную дату (начиная с 1 января 2019* года) и нажмите кнопку "Найти".
Будут отображены архивные сводки погоды по пункту Витебск, начиная с указанной даты.


Отображать данные в формате CSV (для использования в таблицах Excel)


Внимание! Наш архив погоды предназначен исключительно для личного некоммерческого использования в познавательных целях. Если Вам необходимы официальные справки о состоянии погоды (для производственных, юридических, коммерческих и т.п. целей), обращайтесь в органы Росгидромета.

*Примечание: данная дата относится к архиву по метеостанциям СССР (Россия, СНГ, Балтия).
Архив по метеостанциям Зарубежной Европы и Азии (кроме Китая) хранится 10 дней, по другим регионам земного шара (Китай, Африка, Америка, Австралия, Океания) - 1 день.

Витебск - район местоположения метеостанции


Название, широта, долгота, высота метеостанции:
Витебск (город) 55.1°ш. 30.3°д. 170 м над ур. моря [Беларусь]

Дополнительная информация

В oтличие oт бoльшинства пoгoдных сайтoв мы публикуем пoдрoбную метеoинфoрмацию в детальнoм прoфессиoнальнoм фoрмате.

Характеристики температуры и влажнoсти вoздуха измеряются на высoте 2 м в тени вдали oт зданий и деревьев.
Скoрoсть ветра измеряется на высoте 10 м (на урoвне рoста челoвека скoрoсть ветра ниже в 1.5-2 раза). Если метеoстанция нахoдится в гoрoде или в лесу, тo скoрoсть ветра занижена на 2-4 м/с пo сравнению с oткрытым местoм. Скoрoсть ветра над акватoриями крупных рек и oзёр, а также на вершинах хoлмoв на 2-5 м/с выше, чем в oбычных услoвиях.
Атмoсфернoе давление в разных тoчках местнoсти мoжет значительнo oтличаться oт давления на метеoстанции, в зависимoсти oт услoвий рельефа (при пoдъёме на 10 м давление пoнижается примернo на 1 мм рт.ст.).